Location: Cucq
(50.4773°N, 1.6202°E)
Time: 20:20:13
(UTC+00:00)

SeaSat 1 - Pass Details

Date: 07 August 2020
Orbit: 744 x 748 km, 108.0° (Epoch: 21 September)

Event Time Altitude Azimuth Distance (km) Brightness Sun altitude
Rises 03:14:18 0° 35° (NE) 3,202 7.6 -10.7°
Reaches altitude 10° 03:16:43 10° 43° (NE) 2,274 6.6 -10.4°
Maximum altitude 03:21:21 39° 112° (ESE) 1,110 3.6 -9.9°
Drops below altitude 10° 03:25:57 10° 181° (S) 2,261 4.6 -9.3°
Enters shadow 03:27:42 - 188° (S) 2,927 5.1 -9.1°
